DLH6EM EDDF-EPKK

Flight info

Callsign DLH6EM
Flight time 1h 10m
Altitude 35000
Route SULUS7S/18 SULUS L984 OKG DCT PADKA
Aircraft A320/M-SDE3FGHIRWY/LB1

Departure

Time 2026-05-07 08:12
Airport Frankfurt Main Airport (EDDF)

Arrival

Time 2026-05-07 09:22
Airport Kraków John Paul II International Airport (EPKK)
Time Latitude Longitude Altitude Speed Heading
2026-05-07 07:14 50.04390 8.56168 356 ft 0 kts 155°
2026-05-07 08:01 50.04393 8.56166 356 ft 3 kts 154°
2026-05-07 08:01 50.04417 8.56147 361 ft 4 kts 154°
2026-05-07 08:01 50.04440 8.56135 363 ft 4 kts 195°
2026-05-07 08:01 50.04458 8.56153 357 ft 4 kts 225°
2026-05-07 08:02 50.04462 8.56158 359 ft 3 kts 250°
2026-05-07 08:02 50.04454 8.56121 361 ft 2 kts 249°
2026-05-07 08:02 50.04453 8.56118 361 ft 0 kts 249°
2026-05-07 08:04 50.04448 8.56097 359 ft 7 kts 249°
2026-05-07 08:05 50.04406 8.56032 358 ft 9 kts 192°
2026-05-07 08:05 50.04351 8.56052 357 ft 8 kts 158°
2026-05-07 08:05 50.04294 8.56069 355 ft 9 kts 189°
2026-05-07 08:05 50.04251 8.55988 362 ft 12 kts 249°
2026-05-07 08:06 50.04218 8.55846 356 ft 16 kts 250°
2026-05-07 08:06 50.04173 8.55661 355 ft 20 kts 249°
2026-05-07 08:06 50.04122 8.55447 358 ft 22 kts 250°
2026-05-07 08:06 50.04068 8.55223 354 ft 22 kts 249°
2026-05-07 08:07 50.04013 8.54989 356 ft 24 kts 249°
2026-05-07 08:07 50.03952 8.54736 355 ft 25 kts 249°
2026-05-07 08:07 50.03893 8.54492 355 ft 22 kts 249°
2026-05-07 08:07 50.03823 8.54271 347 ft 24 kts 238°
2026-05-07 08:08 50.03755 8.54041 347 ft 24 kts 250°
2026-05-07 08:08 50.03697 8.53790 344 ft 26 kts 250°
2026-05-07 08:08 50.03631 8.53529 337 ft 24 kts 249°
2026-05-07 08:08 50.03582 8.53323 336 ft 20 kts 249°
2026-05-07 08:09 50.03536 8.53131 337 ft 20 kts 249°
2026-05-07 08:09 50.03494 8.52957 337 ft 15 kts 249°
2026-05-07 08:09 50.03452 8.52789 336 ft 18 kts 248°
2026-05-07 08:09 50.03409 8.52638 330 ft 11 kts 234°
2026-05-07 08:10 50.03366 8.52596 335 ft 4 kts 193°
2026-05-07 08:10 50.03340 8.52594 336 ft 2 kts 179°
2026-05-07 08:10 50.03339 8.52594 336 ft 0 kts 179°
2026-05-07 08:11 50.03320 8.52594 333 ft 16 kts 179°
2026-05-07 08:11 50.02906 8.52600 334 ft 98 kts 179°
2026-05-07 08:11 50.02003 8.52607 336 ft 158 kts 180°
2026-05-07 08:11 50.00836 8.52614 819 ft 172 kts 182°
2026-05-07 08:12 49.99618 8.52620 1562 ft 179 kts 182°
2026-05-07 08:12 49.98310 8.52627 2059 ft 199 kts 180°
2026-05-07 08:12 49.97370 8.52856 2296 ft 216 kts 161°
2026-05-07 08:12 49.96105 8.54241 2736 ft 234 kts 126°
2026-05-07 08:13 49.95275 8.56434 3585 ft 237 kts 117°
2026-05-07 08:13 49.94273 8.59466 4890 ft 239 kts 106°
2026-05-07 08:13 49.93981 8.62065 5532 ft 256 kts 91°
2026-05-07 08:13 49.93872 8.64926 6203 ft 272 kts 90°
2026-05-07 08:14 49.93916 8.67884 7072 ft 277 kts 83°
2026-05-07 08:14 49.94039 8.69910 7667 ft 281 kts 82°
2026-05-07 08:14 49.94266 8.72919 8536 ft 288 kts 81°
2026-05-07 08:14 49.94523 8.76039 9399 ft 295 kts 81°
2026-05-07 08:15 49.94788 8.79233 10214 ft 303 kts 81°
2026-05-07 08:15 49.95061 8.82615 10570 ft 328 kts 82°
2026-05-07 08:15 49.95343 8.86254 10909 ft 349 kts 82°
2026-05-07 08:15 49.95625 8.90044 11620 ft 357 kts 82°
2026-05-07 08:16 49.95904 8.93891 12449 ft 360 kts 82°
2026-05-07 08:16 49.96182 8.97774 13292 ft 363 kts 82°
2026-05-07 08:16 49.96456 9.01632 14077 ft 366 kts 83°
2026-05-07 08:16 49.96737 9.05582 14806 ft 370 kts 83°
2026-05-07 08:17 49.97021 9.09568 15519 ft 374 kts 82°
2026-05-07 08:17 49.97308 9.13601 16241 ft 377 kts 82°
2026-05-07 08:17 49.97598 9.17664 16961 ft 380 kts 83°
2026-05-07 08:17 49.97888 9.21765 17642 ft 384 kts 83°
2026-05-07 08:18 49.98179 9.25907 18315 ft 388 kts 83°
2026-05-07 08:18 49.98471 9.30093 18872 ft 392 kts 82°
2026-05-07 08:18 49.98761 9.34263 19438 ft 395 kts 83°
2026-05-07 08:18 49.99057 9.38519 20019 ft 398 kts 83°
2026-05-07 08:19 49.99351 9.42814 20584 ft 401 kts 83°
2026-05-07 08:19 49.99643 9.47144 21164 ft 405 kts 83°
2026-05-07 08:19 49.99939 9.51511 21710 ft 408 kts 83°
2026-05-07 08:19 50.00239 9.55910 22255 ft 411 kts 83°
2026-05-07 08:20 50.00542 9.60347 22802 ft 414 kts 83°
2026-05-07 08:20 50.00843 9.64807 23396 ft 416 kts 82°
2026-05-07 08:20 50.01145 9.69296 23883 ft 419 kts 83°
2026-05-07 08:20 50.01443 9.73753 24330 ft 421 kts 83°
2026-05-07 08:21 50.01741 9.78286 24796 ft 423 kts 83°
2026-05-07 08:21 50.02036 9.82848 25233 ft 425 kts 83°
2026-05-07 08:21 50.02328 9.87435 25654 ft 427 kts 83°
2026-05-07 08:21 50.02621 9.92051 26083 ft 430 kts 83°
2026-05-07 08:22 50.02916 9.96687 26539 ft 433 kts 83°
2026-05-07 08:22 50.03212 10.01356 26988 ft 435 kts 83°
2026-05-07 08:22 50.03507 10.06060 27442 ft 438 kts 83°
2026-05-07 08:22 50.03800 10.10730 27871 ft 441 kts 83°
2026-05-07 08:23 50.04099 10.15494 28281 ft 445 kts 83°
2026-05-07 08:23 50.04399 10.20296 28690 ft 447 kts 83°
2026-05-07 08:23 50.04697 10.25128 29105 ft 450 kts 83°
2026-05-07 08:23 50.04993 10.29986 29490 ft 452 kts 83°
2026-05-07 08:24 50.05291 10.34875 29862 ft 455 kts 83°
2026-05-07 08:24 50.05586 10.39783 30180 ft 457 kts 83°
2026-05-07 08:24 50.05882 10.44723 30417 ft 460 kts 84°
2026-05-07 08:24 50.06178 10.49693 30715 ft 461 kts 84°
2026-05-07 08:25 50.06469 10.54601 31018 ft 463 kts 84°
2026-05-07 08:25 50.06765 10.59583 31385 ft 462 kts 86°
2026-05-07 08:25 50.07053 10.64555 31774 ft 461 kts 86°
2026-05-07 08:25 50.07334 10.69527 32135 ft 461 kts 86°
2026-05-07 08:26 50.07705 10.79501 32849 ft 461 kts 91°
2026-05-07 08:26 50.07716 10.84494 33184 ft 462 kts 92°
2026-05-07 08:26 50.07663 10.89494 33520 ft 462 kts 93°
2026-05-07 08:27 50.07592 10.94433 33861 ft 463 kts 93°
2026-05-07 08:27 50.07528 10.99446 34112 ft 464 kts 93°
2026-05-07 08:27 50.07485 11.04465 34326 ft 464 kts 93°
2026-05-07 08:27 50.07466 11.09498 34557 ft 466 kts 92°
2026-05-07 08:28 50.07463 11.14540 34791 ft 466 kts 92°
2026-05-07 08:28 50.07461 11.19596 34908 ft 467 kts 92°
2026-05-07 08:28 50.07454 11.29681 34936 ft 465 kts 92°
2026-05-07 08:29 50.07425 11.39681 34929 ft 465 kts 93°
2026-05-07 08:29 50.07375 11.49742 34921 ft 465 kts 94°
2026-05-07 08:30 50.07301 11.59837 34931 ft 467 kts 94°
2026-05-07 08:30 50.07230 11.69947 34928 ft 467 kts 94°
2026-05-07 08:31 50.07169 11.80002 34929 ft 468 kts 94°
2026-05-07 08:31 50.07100 11.90117 34928 ft 467 kts 94°
2026-05-07 08:32 50.07015 12.00231 34911 ft 468 kts 95°
2026-05-07 08:32 50.06909 12.10358 34906 ft 468 kts 95°
2026-05-07 08:33 50.06794 12.20485 34918 ft 468 kts 95°
2026-05-07 08:33 50.06658 12.30545 34921 ft 468 kts 95°
2026-05-07 08:34 50.06511 12.40672 34921 ft 468 kts 95°
2026-05-07 08:34 50.06472 12.50821 34907 ft 469 kts 94°
2026-05-07 08:35 50.06533 12.60975 34913 ft 469 kts 94°
2026-05-07 08:35 50.06576 12.71064 34914 ft 469 kts 94°
2026-05-07 08:36 50.06579 12.81220 34912 ft 469 kts 94°
2026-05-07 08:36 50.06561 12.91369 34909 ft 469 kts 95°
2026-05-07 08:37 50.06534 13.01517 34919 ft 469 kts 95°
2026-05-07 08:37 50.06504 13.11607 34921 ft 470 kts 95°
2026-05-07 08:38 50.06478 13.21772 34904 ft 470 kts 95°
2026-05-07 08:38 50.06442 13.31934 34906 ft 469 kts 95°
2026-05-07 08:39 50.06384 13.42088 34908 ft 469 kts 95°
2026-05-07 08:39 50.06312 13.52163 34908 ft 469 kts 96°
2026-05-07 08:40 50.06239 13.62312 34904 ft 469 kts 96°
2026-05-07 08:40 50.06163 13.72456 34908 ft 469 kts 96°
2026-05-07 08:41 50.06067 13.82605 34879 ft 469 kts 96°
2026-05-07 08:41 50.05965 13.92688 34887 ft 469 kts 96°
2026-05-07 08:42 50.05862 14.02840 34898 ft 470 kts 96°
2026-05-07 08:42 50.05749 14.13015 34929 ft 470 kts 96°
2026-05-07 08:43 50.05627 14.23183 34935 ft 470 kts 96°
2026-05-07 08:43 50.05498 14.33285 34908 ft 470 kts 96°
2026-05-07 08:44 50.05351 14.43475 34889 ft 471 kts 96°
2026-05-07 08:44 50.05196 14.53679 34897 ft 472 kts 96°
2026-05-07 08:45 50.05037 14.63827 34901 ft 472 kts 96°
2026-05-07 08:45 50.04873 14.74045 34904 ft 473 kts 96°
2026-05-07 08:46 50.04695 14.84276 34894 ft 473 kts 97°
2026-05-07 08:46 50.04504 14.94513 34900 ft 473 kts 97°
2026-05-07 08:47 50.04303 15.04752 34906 ft 473 kts 97°
2026-05-07 08:47 50.04098 15.14916 34909 ft 473 kts 97°
2026-05-07 08:48 50.03882 15.25151 34875 ft 473 kts 97°
2026-05-07 08:48 50.03651 15.35383 34898 ft 473 kts 97°
2026-05-07 08:49 50.03420 15.45609 34905 ft 473 kts 97°
2026-05-07 08:49 50.03188 15.55759 34931 ft 473 kts 97°
2026-05-07 08:50 50.02939 15.65979 34932 ft 473 kts 98°
2026-05-07 08:50 50.02673 15.76189 34912 ft 472 kts 98°
2026-05-07 08:51 50.02397 15.86392 34928 ft 472 kts 98°
2026-05-07 08:51 50.02123 15.96518 34903 ft 472 kts 98°
2026-05-07 08:52 50.01844 16.06701 34910 ft 471 kts 98°
2026-05-07 08:52 50.01549 16.16880 34868 ft 471 kts 98°
2026-05-07 08:53 50.01235 16.27087 34898 ft 473 kts 99°
2026-05-07 08:53 50.00923 16.37250 34901 ft 474 kts 98°
2026-05-07 08:54 50.00606 16.47478 34906 ft 474 kts 99°
2026-05-07 08:54 50.00273 16.57701 34906 ft 474 kts 99°
2026-05-07 08:55 49.99930 16.67923 34885 ft 474 kts 99°
2026-05-07 08:55 49.99580 16.78074 34897 ft 473 kts 99°
2026-05-07 08:56 49.99230 16.88286 34904 ft 473 kts 99°
2026-05-07 08:56 49.98867 16.98497 34910 ft 473 kts 99°
2026-05-07 08:57 49.98483 17.08702 34868 ft 473 kts 99°
2026-05-07 08:57 49.98087 17.18813 34904 ft 472 kts 99°
2026-05-07 08:58 49.97693 17.28976 34918 ft 471 kts 99°
2026-05-07 08:58 49.97302 17.39125 34922 ft 470 kts 99°
2026-05-07 08:59 49.96899 17.49259 34921 ft 470 kts 99°
2026-05-07 08:59 49.96481 17.59318 34891 ft 470 kts 99°
2026-05-07 09:00 49.96052 17.69437 34898 ft 470 kts 99°
2026-05-07 09:00 49.95617 17.79560 34906 ft 470 kts 100°
2026-05-07 09:01 49.95170 17.89680 34908 ft 469 kts 99°
2026-05-07 09:01 49.94722 17.99716 34910 ft 469 kts 100°
2026-05-07 09:02 49.94491 18.04766 34766 ft 469 kts 100°
2026-05-07 09:02 49.94260 18.09820 34522 ft 469 kts 100°
2026-05-07 09:02 49.94025 18.14866 34275 ft 469 kts 100°
2026-05-07 09:02 49.93787 18.19910 34050 ft 469 kts 101°
2026-05-07 09:03 49.93546 18.24951 33661 ft 468 kts 101°
2026-05-07 09:03 49.93304 18.30021 32557 ft 474 kts 100°
2026-05-07 09:03 49.93106 18.35077 31574 ft 477 kts 99°
2026-05-07 09:03 49.92951 18.40248 30507 ft 482 kts 98°
2026-05-07 09:04 49.92818 18.45467 29510 ft 484 kts 98°
2026-05-07 09:04 49.92697 18.50631 28876 ft 475 kts 97°
2026-05-07 09:04 49.92569 18.55715 28160 ft 468 kts 98°
2026-05-07 09:04 49.92424 18.60728 27466 ft 462 kts 98°
2026-05-07 09:05 49.92269 18.65684 26772 ft 458 kts 98°
2026-05-07 09:05 49.92105 18.70599 26096 ft 454 kts 98°
2026-05-07 09:05 49.91938 18.75403 25435 ft 451 kts 98°
2026-05-07 09:05 49.91765 18.80237 24767 ft 447 kts 99°
2026-05-07 09:06 49.91549 18.85025 24128 ft 443 kts 99°
2026-05-07 09:06 49.91288 18.89766 23732 ft 440 kts 100°
2026-05-07 09:06 49.91000 18.94475 23230 ft 437 kts 101°
2026-05-07 09:06 49.90708 18.99145 22662 ft 432 kts 100°
2026-05-07 09:07 49.90424 19.03768 22124 ft 428 kts 100°
2026-05-07 09:07 49.90153 19.08348 21603 ft 425 kts 99°
2026-05-07 09:07 49.89895 19.12834 21092 ft 422 kts 99°
2026-05-07 09:07 49.89636 19.17351 20587 ft 419 kts 99°
2026-05-07 09:08 49.89377 19.21842 20091 ft 416 kts 99°
2026-05-07 09:08 49.89285 19.26318 19604 ft 417 kts 89°
2026-05-07 09:08 49.89840 19.30737 19118 ft 419 kts 74°
2026-05-07 09:08 49.90953 19.34912 18633 ft 418 kts 68°
2026-05-07 09:09 49.92117 19.39030 18171 ft 415 kts 68°
2026-05-07 09:09 49.93264 19.43123 17640 ft 412 kts 68°
2026-05-07 09:09 49.94392 19.47182 17089 ft 407 kts 69°
2026-05-07 09:09 49.95180 19.51298 16579 ft 401 kts 80°
2026-05-07 09:10 49.95740 19.55505 16118 ft 395 kts 80°
2026-05-07 09:10 49.96299 19.59667 15591 ft 393 kts 80°
2026-05-07 09:10 49.96856 19.63812 15023 ft 391 kts 80°
2026-05-07 09:10 49.97410 19.67939 14461 ft 387 kts 80°
2026-05-07 09:11 49.97955 19.71989 13923 ft 380 kts 80°
2026-05-07 09:11 49.98492 19.75979 13336 ft 373 kts 80°
2026-05-07 09:11 49.99006 19.79755 13094 ft 349 kts 80°
2026-05-07 09:11 49.99497 19.83324 12818 ft 329 kts 80°
2026-05-07 09:12 49.99969 19.86766 12227 ft 323 kts 80°
2026-05-07 09:12 50.00427 19.90156 11566 ft 319 kts 80°
2026-05-07 09:12 50.00874 19.93483 11235 ft 305 kts 80°
2026-05-07 09:12 50.01296 19.96602 11055 ft 287 kts 80°
2026-05-07 09:13 50.01703 19.99605 10661 ft 280 kts 80°
2026-05-07 09:13 50.02101 20.02552 10416 ft 277 kts 80°
2026-05-07 09:13 50.02489 20.05440 10144 ft 276 kts 80°
2026-05-07 09:13 50.02883 20.08348 9859 ft 275 kts 80°
2026-05-07 09:14 50.03276 20.11243 9499 ft 272 kts 80°
2026-05-07 09:14 50.03667 20.14117 8970 ft 271 kts 80°
2026-05-07 09:14 50.04053 20.16976 8433 ft 269 kts 80°
2026-05-07 09:14 50.04468 20.19800 7897 ft 267 kts 71°
2026-05-07 09:15 50.05467 20.22183 7379 ft 264 kts 39°
2026-05-07 09:15 50.07056 20.23456 6869 ft 255 kts
2026-05-07 09:15 50.08802 20.23531 6256 ft 251 kts 345°
2026-05-07 09:15 50.10406 20.22618 5930 ft 241 kts 323°
2026-05-07 09:16 50.11645 20.20991 5796 ft 234 kts 304°
2026-05-07 09:16 50.12466 20.18874 5624 ft 226 kts 287°
2026-05-07 09:16 50.12807 20.16531 5388 ft 220 kts 270°
2026-05-07 09:16 50.12676 20.14210 5137 ft 212 kts 256°
2026-05-07 09:17 50.12371 20.11993 4868 ft 207 kts 257°
2026-05-07 09:17 50.12076 20.09812 4597 ft 204 kts 257°
2026-05-07 09:17 50.11783 20.07651 4318 ft 204 kts 256°
2026-05-07 09:17 50.11495 20.05533 4064 ft 195 kts 257°
2026-05-07 09:18 50.11221 20.03534 3806 ft 187 kts 258°
2026-05-07 09:18 50.10957 20.01595 3566 ft 180 kts 258°
2026-05-07 09:18 50.10700 19.99717 3333 ft 176 kts 258°
2026-05-07 09:18 50.10451 19.97896 3129 ft 168 kts 257°
2026-05-07 09:19 50.10211 19.96150 2892 ft 163 kts 257°
2026-05-07 09:19 50.09978 19.94449 2690 ft 158 kts 258°
2026-05-07 09:19 50.09757 19.92847 2482 ft 144 kts 256°
2026-05-07 09:19 50.09558 19.91401 2298 ft 133 kts 258°
2026-05-07 09:20 50.09367 19.90014 2123 ft 131 kts 258°
2026-05-07 09:20 50.09178 19.88643 1946 ft 128 kts 256°
2026-05-07 09:20 50.08987 19.87260 1777 ft 131 kts 256°
2026-05-07 09:20 50.08793 19.85854 1588 ft 134 kts 260°
2026-05-07 09:21 50.08601 19.84466 1412 ft 128 kts 259°
2026-05-07 09:21 50.08416 19.83109 1249 ft 127 kts 257°
2026-05-07 09:21 50.08225 19.81731 1062 ft 131 kts 258°
2026-05-07 09:21 50.08034 19.80377 855 ft 126 kts 257°
2026-05-07 09:22 50.07845 19.79089 803 ft 116 kts 261°
2026-05-07 09:22 50.07719 19.78118 799 ft 66 kts 258°
2026-05-07 09:22 50.07655 19.77652 799 ft 32 kts 257°
2026-05-07 09:22 50.07610 19.77328 800 ft 29 kts 258°
2026-05-07 09:23 50.07572 19.77050 803 ft 24 kts 258°
2026-05-07 09:23 50.07520 19.76857 803 ft 17 kts 209°
2026-05-07 09:23 50.07394 19.76873 800 ft 21 kts 168°
2026-05-07 09:23 50.07313 19.76997 800 ft 18 kts 83°
2026-05-07 09:24 50.07338 19.77175 800 ft 17 kts 78°
2026-05-07 09:24 50.07361 19.77345 800 ft 16 kts 78°
2026-05-07 09:24 50.07383 19.77504 800 ft 15 kts 77°
2026-05-07 09:24 50.07404 19.77653 800 ft 14 kts 77°
2026-05-07 09:25 50.07423 19.77794 800 ft 13 kts 78°
2026-05-07 09:25 50.07442 19.77931 800 ft 16 kts 78°
2026-05-07 09:25 50.07471 19.78139 800 ft 21 kts 77°
2026-05-07 09:25 50.07501 19.78353 800 ft 20 kts 78°
2026-05-07 09:26 50.07529 19.78552 800 ft 19 kts 78°
2026-05-07 09:26 50.07555 19.78742 800 ft 18 kts 78°
2026-05-07 09:26 50.07587 19.78969 800 ft 22 kts 78°
2026-05-07 09:26 50.07616 19.79181 800 ft 19 kts 78°
2026-05-07 09:27 50.07644 19.79379 800 ft 18 kts 78°
2026-05-07 09:27 50.07669 19.79558 800 ft 16 kts 77°
2026-05-07 09:27 50.07693 19.79852 800 ft 11 kts 125°
2026-05-07 09:28 50.07626 19.79894 800 ft 10 kts 167°
2026-05-07 09:28 50.07557 19.79917 800 ft 14 kts 168°
2026-05-07 09:28 50.07471 19.79946 800 ft 12 kts 167°
2026-05-07 09:28 50.07405 19.79993 800 ft 10 kts 123°
2026-05-07 09:29 50.07396 19.80080 800 ft 7 kts 115°
2026-05-07 09:29 50.07354 19.80097 800 ft 6 kts 175°
2026-05-07 09:29 50.07325 19.80107 800 ft 0 kts 166°